Wind_Speed
30 30 29 30 29 29 29 30 31 32 32 33 35 35 36 35 34 32 34 34 33 29 27 27 27 26 27 26 25 26 26 26 27 30 31 35 32 32 28 29 28 28 31 35 34 34 34 21 19 18 15 13 15 13
36 32 31 31 31 30 28 28 29 31 32 33 33 33 33 33 34 33 33 34 32 29 26 26 25 25 25 27 27 26 25 27 32 24 22 27 29 31 32 35 31 35 37 34 31 27 22 17 15 16 14 16 17 19
39 38 36 39 38 35 32 31 30 30 32 32 33 34 34 35 35 33 32 34 31 28 27 27 26 26 28 28 28 24 25 25 32 23 24 24 28 26 29 34 33 29 23 21 23 16 17 15 24 18 16 17 20 15
44 44 42 41 42 41 40 38 35 32 30 30 30 31 33 33 33 33 32 33 34 30 28 25 28 27 27 26 25 23 26 27 31 19 24 26 28 29 27 27 27 22 21 22 25 23 24 16 14 11 17 13 15 27
48 48 48 46 42 42 40 41 38 36 34 31 29 28 28 30 32 32 32 32 30 30 26 26 27 25 24 25 24 25 27 28 32 23 23 27 29 30 29 24 19 19 24 25 23 26 30 20 20 17 17 15 14 17
47 48 50 51 49 45 43 34 36 37 37 36 30 30 30 30 31 31 30 29 29 29 28 26 26 24 24 24 24 27 32 29 30 27 23 31 29 30 28 23 18 18 21 25 26 27 29 24 23 23 17 19 21 24
39 38 38 38 39 40 44 44 42 45 40 35 32 28 29 31 32 31 28 26 26 27 25 23 22 23 25 26 28 26 29 31 31 31 33 31 29 31 30 24 20 24 27 27 30 30 25 23 24 25 23 21 21 24
23 25 27 30 35 38 38 42 47 47 45 36 32 30 31 34 36 31 27 30 29 28 26 24 21 22 24 24 24 25 27 27 32 34 30 33 34 34 32 26 20 23 26 30 31 32 29 25 27 27 26 25 25 27
23 24 25 26 33 34 33 37 42 42 39 35 28 24 23 24 24 20 29 32 31 29 23 27 23 22 22 21 24 22 20 20 28 30 29 33 32 32 29 26 25 27 30 30 30 30 29 28 29 29 29 29 29 31
12 9 8 9 12 16 25 31 30 27 24 18 18 16 12 11 15 18 19 21 34 32 32 24 24 24 14 16 10 15 20 22 28 27 30 31 31 26 26 25 25 29 32 29 28 28 29 29 29 30 31 32 30 27
25 20 17 18 17 19 21 24 22 25 23 19 15 10 10 8 15 18 17 11 23 30 25 21 25 15 9 8 13 18 21 25 29 27 28 30 26 21 23 27 28 28 29 28 27 29 30 29 28 27 25 24 24 25
20 22 22 23 23 24 24 24 25 24 23 22 20 16 9 10 23 21 15 17 21 23 21 21 20 11 9 14 17 23 23 27 27 29 31 25 11 16 22 20 22 22 20 18 17 18 19 19 16 19 23 23 24 27
32 29 22 20 22 23 23 25 26 26 23 21 16 19 21 26 18 17 8 8 14 15 18 16 13 12 13 16 22 26 28 29 31 31 27 13 11 12 7 11 13 9 10 7 9 11 12 15 19 20 21 23 24 25
33 32 29 26 28 30 31 36 39 37 34 27 17 10 11 12 4 6 6 12 13 12 12 15 15 15 18 21 24 26 30 27 14 10 11 14 10 9 6 10 10 10 13 14 15 15 15 17 19 19 20 20 20 20
28 28 28 29 32 35 37 30 29 24 19 11 4 3 16 12 10 10 16 13 12 13 17 17 19 19 20 20 20 21 21 11 6 10 10 15 13 9 9 7 6 9 13 14 14 15 17 18 17 17 16 16 17 19
22 22 23 24 23 25 27 24 22 20 11 11 5 10 13 21 15 15 16 14 13 12 16 19 21 22 23 24 24 21 21 13 14 14 12 11 19 14 12 13 12 13 15 14 15 16 15 16 16 15 16 16 18 19
10 9 9 13 15 14 11 9 8 9 9 9 10 12 15 17 19 21 23 22 23 22 23 25 27 28 30 29 28 27 22 18 17 17 16 15 18 21 19 19 19 19 18 17 17 17 19 18 16 17 18 19 20 22
6 2 5 5 3 3 4 8 10 12 14 12 13 17 20 22 24 26 25 25 26 27 28 28 29 31 32 32 28 25 26 19 18 19 21 21 17 20 23 22 21 20 19 20 21 21 20 19 19 20 22 23 25 26
7 11 15 18 19 20 22 21 21 23 22 23 30 28 27 27 27 27 27 27 24 24 23 21 23 23 22 23 25 25 26 24 19 19 22 22 22 21 22 24 22 23 23 23 23 23 22 21 22 24 26 28 29 30
5 9 12 15 19 24 28 30 33 34 32 30 29 27 27 27 27 26 24 24 23 23 22 21 21 22 21 17 17 24 24 26 23 19 19 20 21 19 19 20 23 24 24 25 25 23 23 24 27 29 31 31 33 34
9 10 11 12 14 18 21 22 24 26 26 27 28 28 27 27 27 26 28 27 24 24 22 23 23 19 17 18 18 18 19 19 20 21 21 21 21 19 20 21 22 24 24 23 24 25 27 29 32 34 35 35 37 37
9 10 12 14 16 17 18 19 20 22 23 24 24 25 26 26 24 24 23 23 25 27 26 24 23 20 19 19 19 17 19 24 27 28 26 23 22 22 23 24 24 25 27 29 30 32 34 36 37 38 38 38 38 38
14 12 12 13 16 19 19 21 22 22 22 21 21 21 22 22 23 25 26 26 28 31 33 32 29 26 23 22 23 23 25 27 27 26 25 26 27 28 28 29 30 32 34 36 38 39 40 39 38 37 37 37 38 39
18 16 14 11 12 14 16 20 23 25 25 25 25 24 23 23 23 23 24 25 27 30 33 35 36 34 33 33 32 32 32 32 31 31 31 31 33 35 36 38 39 41 42 42 41 40 38 37 37 37 38 39 39 39
23 21 21 18 16 13 11 12 15 19 22 26 27 28 28 29 29 28 25 25 25 25 27 29 32 34 35 36 37 38 39 39 39 40 40 40 41 42 42 41 40 39 37 36 35 35 35 35 36 36 37 39 41 44
25 24 23 22 21 20 18 16 14 12 13 16 19 23 27 30 31 31 31 33 33 32 31 30 30 29 29 30 32 34 36 37 37 37 37 38 38 37 35 33 33 33 34 33 32 32 34 35 37 40 43 45 47 47
25 25 24 24 23 22 21 21 20 19 17 14 15 17 20 23 24 27 31 34 35 35 37 38 38 37 36 34 32 31 30 30 30 30 29 30 31 31 31 31 31 30 30 31 33 36 38 40 43 45 47 47 45 45
27 26 25 24 23 23 22 22 21 21 21 20 19 18 19 20 22 24 26 28 31 34 36 38 39 39 39 40 40 39 38 37 36 35 34 34 34 33 33 33 34 34 36 38 40 42 43 45 46 45 44 44 44 43
27 27 25 25 25 24 23 23 23 23 23 23 24 23 24 25 26 27 27 29 30 32 33 34 35 38 40 42 40 39 42 43 43 42 41 41 41 40 40 40 41 42 44 44 44 44 44 42 42 42 41 40 39 40
28 28 27 26 26 26 26 26 26 26 27 27 28 27 27 28 29 31 32 32 32 32 33 34 35 36 37 38 38 40 42 42 42 42 44 45 46 46 46 45 45 44 43 43 41 40 39 38 38 39 39 41 43 44
28 29 29 29 27 27 28 29 29 30 30 31 31 31 30 30 29 28 27 26 27 29 31 34 35 36 36 36 36 36 37 37 38 40 41 40 39 38 38 38 38 37 37 36 36 36 37 38 39 39 40 41 43 45
29 28 29 29 29 29 29 30 32 33 34 36 35 35 34 33 30 29 28 29 29 30 29 28 28 31 32 32 32 31 32 33 33 33 33 34 36 37 38 37 37 36 36 36 36 36 37 37 38 40 41 42 43 43
32 30 28 29 30 31 30 30 32 34 36 38 39 39 40 38 36 34 31 28 27 26 26 27 27 27 26 27 27 26 26 26 27 28 28 28 29 29 30 30 31 32 32 33 33 34 34 35 35 35 34 34 32 31
Wind_Direction
236 240 241 240 242 239 238 239 239 241 243 242 241 244 246 249 248 249 251 253 254 257 252 252 248 248 247 249 250 251 257 264 264 267 259 262 260 256 257 262 267 269 276 283 287 286 288 273 263 254 253 250 241 253
238 235 233 236 239 239 238 234 231 233 234 237 239 242 244 245 247 247 246 245 246 252 254 254 253 245 239 238 241 246 252 254 253 270 265 258 251 253 257 269 270 274 282 282 280 282 282 265 240 246 233 244 255 257
235 238 239 235 236 240 242 238 235 232 231 232 234 237 239 240 241 241 241 240 243 248 247 246 240 232 234 237 237 237 242 245 244 268 274 269 252 257 263 267 274 278 276 271 267 269 255 275 263 278 252 258 254 266
231 238 241 237 235 238 241 243 244 241 238 234 234 237 238 240 242 243 242 240 244 244 240 233 231 229 233 234 235 231 240 243 240 262 258 273 255 255 266 270 267 267 273 280 277 260 246 269 291 251 244 248 259 263
234 232 231 235 233 237 240 245 248 248 247 246 247 246 244 242 243 242 239 241 243 243 240 228 229 230 231 234 232 237 240 240 242 243 260 274 267 262 268 270 273 274 275 277 277 262 264 263 286 268 263 251 269 271
229 229 228 229 230 232 231 230 247 247 248 251 251 249 244 241 240 242 242 243 243 243 243 231 224 233 237 239 240 242 237 247 233 238 245 257 259 272 271 273 278 281 269 277 265 259 266 272 279 282 282 271 274 279
230 230 232 234 233 232 230 229 236 243 246 248 242 237 238 240 238 241 242 242 241 239 239 232 223 231 235 237 243 239 234 241 238 232 241 255 267 271 269 275 300 284 267 268 265 263 263 274 272 276 280 285 288 284
219 225 229 231 230 227 221 222 225 232 240 244 241 240 242 243 242 244 244 240 235 235 236 234 232 230 229 234 231 229 240 246 242 241 250 257 265 271 271 294 287 266 257 253 257 261 262 264 268 263 266 272 278 281
225 234 243 242 234 227 222 222 226 231 236 243 241 234 233 235 240 231 230 230 231 231 233 230 228 219 209 218 223 239 232 237 239 242 257 263 268 276 287 278 267 259 254 252 255 262 262 259 263 266 268 271 276 282
167 163 156 143 148 182 202 207 210 210 217 202 190 193 190 182 194 205 221 227 219 223 229 222 212 203 216 209 233 239 235 236 237 248 265 269 274 281 273 262 257 254 253 255 255 261 265 263 263 266 270 274 278 277
105 113 118 120 126 129 138 145 145 148 154 159 156 156 157 195 208 213 200 182 200 206 223 210 198 201 190 256 257 245 245 252 258 269 281 275 287 282 257 247 244 248 253 258 262 261 263 265 266 267 269 272 272 276
97 100 107 118 124 128 132 139 143 147 148 144 127 121 113 209 168 163 161 172 205 211 208 200 209 228 227 247 260 260 265 268 279 286 284 284 265 250 245 255 263 270 273 269 264 257 251 249 246 259 266 271 277 281
86 89 102 115 118 126 134 140 145 148 145 141 141 151 176 163 163 150 115 223 198 212 198 210 227 250 253 259 263 271 275 284 284 288 299 298 228 239 253 242 251 248 270 264 270 260 256 254 259 263 272 280 284 286
89 93 92 97 118 130 129 122 120 119 110 106 85 128 183 149 102 247 227 195 195 210 216 229 235 241 252 259 266 277 276 281 304 318 287 218 227 218 233 201 218 237 253 257 263 265 263 267 276 283 286 287 289 291
87 93 100 106 113 119 119 115 124 115 100 89 19 224 175 168 159 187 213 211 227 253 248 244 245 250 260 267 274 272 266 268 316 329 304 228 227 240 244 263 265 274 285 273 265 269 273 276 281 283 285 290 295 297
90 95 104 110 113 129 131 129 138 144 140 105 168 228 225 222 231 219 216 251 264 260 251 248 250 256 267 274 271 265 261 289 279 278 284 290 258 259 270 274 267 267 279 277 272 274 274 278 274 276 283 292 297 299
69 70 94 105 110 122 137 155 176 201 193 198 196 220 234 245 242 249 249 255 264 269 270 267 270 275 275 273 271 270 268 278 280 278 285 292 266 256 266 268 262 265 272 273 274 276 277 276 272 279 289 296 300 305
187 308 31 22 358 358 311 279 252 244 248 255 261 260 260 261 260 261 266 268 273 276 278 276 276 274 274 275 272 256 252 263 271 277 285 286 279 255 255 263 266 268 270 274 274 274 276 279 282 287 292 297 300 304
229 224 220 216 213 211 215 229 243 250 258 264 274 272 266 265 266 267 270 272 269 267 268 268 272 279 276 271 260 247 246 258 261 271 280 281 281 273 265 263 264 266 269 269 270 272 278 282 286 289 292 295 299 301
296 265 250 241 237 239 243 245 246 252 258 260 263 263 265 265 266 266 261 256 262 256 256 268 276 278 270 260 254 246 254 257 261 267 280 278 273 272 268 264 263 265 265 264 268 274 278 284 288 292 293 296 298 299
308 288 277 269 263 259 258 258 258 260 262 265 265 265 267 267 267 266 263 259 256 243 263 263 262 264 271 262 252 240 254 257 262 262 270 275 269 272 270 264 261 262 267 273 278 281 286 289 291 294 295 297 298 297
329 303 285 276 270 267 263 262 260 261 261 261 259 258 258 260 261 260 258 255 244 241 249 251 251 252 251 251 247 246 243 250 256 264 267 268 266 262 261 263 266 271 276 282 286 289 292 292 293 294 293 293 292 291
352 336 312 293 282 276 271 267 266 266 267 266 267 266 266 266 266 264 261 257 255 247 246 250 252 247 244 246 253 255 256 257 259 260 261 261 260 261 264 270 275 281 283 285 286 288 288 289 288 288 288 288 289 290
16 12 2 341 319 298 284 274 270 269 270 270 269 268 267 267 263 262 262 261 257 256 255 254 254 254 253 253 254 254 255 255 256 257 259 262 265 269 273 276 278 280 282 284 286 286 286 285 285 285 287 288 289 290
16 19 18 17 12 360 338 313 296 284 276 270 268 267 266 263 263 263 265 268 265 259 256 255 255 254 255 256 256 257 258 260 261 263 265 267 269 271 273 275 275 276 277 278 278 278 279 282 283 285 287 289 292 294
19 18 17 16 15 12 8 2 350 331 308 293 286 278 272 268 266 264 262 260 260 262 265 265 263 260 257 256 255 254 256 256 258 260 262 263 266 268 270 270 270 271 274 275 275 276 279 282 286 290 292 294 297 298
18 17 14 12 10 10 8 6 2 358 351 335 315 300 291 285 281 273 267 264 263 262 260 260 260 260 262 263 262 259 256 255 253 253 256 257 259 261 263 265 266 267 269 273 278 282 286 290 291 293 295 296 297 297
11 14 14 12 8 5 3 1 358 353 349 344 337 327 317 305 296 289 281 274 269 265 262 261 261 261 259 257 256 256 258 258 257 256 257 258 259 260 263 267 271 276 279 281 285 288 290 291 293 294 295 295 296 297
8 8 8 8 7 4 360 356 353 350 346 342 336 328 319 311 304 298 292 286 280 274 270 267 263 261 258 257 256 255 254 253 254 256 258 261 264 267 269 272 274 277 280 283 286 287 289 291 292 294 295 295 296 297
4 4 6 4 2 1 358 355 351 349 346 342 338 332 323 314 305 298 292 288 283 279 275 271 268 266 262 258 256 255 254 254 255 255 256 257 259 262 265 268 272 275 277 280 282 284 286 288 290 293 294 296 297 298
4 0 1 3 2 360 356 354 351 349 348 345 343 338 333 328 321 313 306 300 294 287 279 272 267 265 262 260 259 256 255 255 256 256 257 258 260 262 264 266 269 271 274 277 280 282 286 289 292 294 297 299 300 301
7 1 358 358 360 359 358 354 351 349 349 349 347 346 344 340 335 327 318 309 301 294 289 285 278 269 263 260 258 257 255 254 253 255 256 257 257 258 261 264 268 271 274 277 280 284 287 290 294 296 299 301 302 304
5 5 1 356 355 358 358 357 354 352 351 351 351 351 350 347 343 338 333 327 318 308 296 284 273 269 265 258 254 253 253 254 252 253 254 255 257 259 262 266 268 271 274 277 280 284 288 292 296 300 303 306 309 312
Height
5409 5413 5417 5422 5427 5432 5437 5442 5447 5452 5457 5462 5466 5471 5475 5478 5482 5486 5490 5493 5498 5504 5510 5513 5516 5520 5522 5526 5530 5532 5535 5538 5540 5541 5540 5541 5542 5543 5543 5543 5544 5545 5544 5542 5542 5539 5536 5539 5539 5539 5540 5542 5543 5544
5402 5407 5411 5415 5420 5425 5430 5436 5440 5445 5449 5454 5458 5461 5465 5469 5473 5478 5483 5484 5489 5495 5503 5503 5507 5510 5514 5516 5520 5524 5528 5531 5534 5534 5534 5534 5536 5536 5537 5535 5538 5537 5537 5535 5535 5533 5532 5532 5532 5533 5533 5536 5538 5539
5394 5399 5404 5409 5413 5417 5422 5427 5432 5437 5441 5445 5449 5453 5457 5461 5464 5470 5474 5476 5480 5486 5492 5495 5500 5501 5504 5508 5512 5516 5520 5524 5527 5528 5528 5528 5528 5530 5530 5530 5530 5530 5529 5527 5527 5529 5527 5529 5528 5528 5529 5530 5531 5533
5387 5391 5396 5401 5405 5409 5414 5418 5422 5428 5432 5437 5441 5444 5448 5451 5454 5460 5465 5467 5471 5477 5483 5488 5489 5493 5496 5500 5504 5508 5512 5516 5520 5521 5521 5521 5521 5522 5523 5523 5524 5525 5524 5522 5521 5522 5520 5523 5523 5522 5523 5524 5525 5526
5378 5383 5387 5392 5397 5401 5405 5409 5414 5419 5424 5429 5433 5436 5439 5443 5446 5451 5456 5460 5462 5468 5474 5479 5481 5485 5488 5492 5497 5501 5505 5508 5511 5513 5515 5515 5516 5517 5518 5517 5519 5519 5518 5516 5515 5515 5512 5518 5517 5517 5518 5519 5519 5521
5368 5372 5377 5382 5387 5392 5397 5402 5406 5411 5416 5421 5425 5429 5432 5435 5438 5443 5449 5453 5455 5459 5464 5469 5475 5478 5482 5486 5490 5493 5497 5501 5504 5506 5508 5507 5510 5511 5509 5509 5513 5513 5510 5508 5507 5507 5508 5511 5510 5510 5513 5513 5514 5514
5358 5362 5366 5370 5375 5380 5387 5393 5398 5402 5408 5413 5417 5421 5424 5427 5431 5437 5443 5447 5449 5452 5457 5461 5467 5472 5476 5479 5483 5486 5491 5494 5496 5498 5500 5502 5504 5502 5500 5501 5507 5505 5503 5501 5499 5499 5502 5503 5504 5505 5505 5506 5506 5506
5349 5353 5356 5360 5363 5369 5375 5381 5387 5394 5400 5405 5409 5412 5415 5418 5422 5430 5436 5438 5441 5446 5451 5455 5462 5467 5471 5474 5478 5483 5486 5487 5490 5492 5494 5495 5495 5494 5493 5498 5497 5495 5493 5492 5491 5492 5495 5497 5496 5497 5499 5499 5499 5499
5343 5346 5348 5349 5352 5358 5364 5371 5380 5386 5392 5396 5400 5404 5407 5411 5417 5424 5423 5428 5434 5441 5444 5450 5456 5461 5466 5471 5475 5478 5479 5482 5483 5487 5487 5487 5487 5486 5487 5486 5485 5483 5483 5483 5484 5485 5486 5489 5490 5489 5490 5490 5491 5490
5340 5343 5345 5346 5346 5349 5355 5364 5372 5379 5386 5391 5396 5400 5405 5410 5413 5416 5418 5420 5425 5432 5436 5444 5451 5458 5463 5467 5469 5472 5473 5475 5476 5480 5479 5479 5479 5480 5477 5476 5475 5474 5473 5475 5477 5478 5479 5480 5481 5481 5481 5481 5481 5481
5343 5345 5347 5349 5351 5354 5358 5365 5372 5379 5385 5391 5397 5402 5406 5410 5412 5414 5415 5418 5423 5428 5434 5443 5450 5455 5460 5463 5465 5466 5468 5469 5469 5473 5471 5469 5471 5468 5467 5466 5465 5465 5466 5468 5469 5470 5471 5472 5473 5473 5473 5473 5473 5472
5352 5353 5354 5356 5359 5363 5368 5372 5377 5383 5389 5394 5398 5402 5406 5412 5411 5413 5415 5419 5425 5430 5436 5444 5449 5452 5456 5459 5460 5461 5462 5462 5463 5462 5460 5460 5461 5458 5457 5458 5460 5460 5461 5461 5461 5462 5463 5464 5465 5466 5466 5466 5465 5464
5359 5360 5361 5364 5367 5371 5375 5379 5383 5387 5392 5396 5401 5404 5413 5414 5415 5418 5421 5428 5430 5434 5439 5444 5447 5449 5452 5455 5456 5457 5456 5457 5455 5453 5453 5454 5452 5453 5453 5454 5455 5456 5456 5457 5457 5457 5458 5459 5460 5460 5460 5459 5457 5456
5373 5372 5373 5374 5375 5377 5381 5385 5389 5394 5398 5402 5409 5413 5416 5420 5422 5425 5427 5430 5434 5436 5440 5442 5445 5447 5449 5450 5451 5451 5450 5450 5450 5448 5446 5445 5447 5448 5450 5450 5452 5452 5452 5452 5453 5454 5454 5455 5455 5454 5453 5452 5451 5449
5387 5386 5387 5387 5389 5391 5393 5395 5397 5401 5403 5408 5414 5418 5420 5421 5424 5426 5429 5431 5434 5435 5437 5439 5441 5442 5444 5445 5445 5445 5444 5446 5446 5445 5442 5441 5442 5444 5445 5446 5447 5447 5448 5448 5448 5448 5449 5449 5448 5448 5447 5446 5445 5443
5397 5397 5397 5398 5400 5402 5403 5404 5406 5407 5410 5411 5418 5421 5422 5423 5425 5427 5428 5429 5430 5431 5433 5435 5436 5437 5438 5438 5438 5438 5440 5443 5442 5441 5439 5438 5439 5440 5440 5441 5441 5442 5442 5442 5443 5443 5443 5443 5442 5442 5441 5440 5439 5438
5403 5404 5405 5405 5406 5408 5409 5410 5411 5412 5414 5416 5418 5421 5422 5424 5425 5425 5425 5426 5427 5428 5429 5429 5430 5431 5431 5431 5431 5432 5436 5437 5437 5436 5435 5434 5434 5435 5435 5435 5435 5436 5437 5437 5437 5437 5437 5436 5436 5436 5435 5434 5433 5431
5407 5407 5407 5407 5408 5409 5411 5412 5413 5413 5415 5416 5417 5418 5419 5419 5419 5420 5420 5421 5422 5422 5423 5423 5422 5422 5422 5423 5425 5427 5429 5431 5430 5430 5429 5429 5428 5428 5429 5429 5430 5430 5431 5431 5431 5430 5430 5430 5430 5429 5428 5427 5426 5424
5406 5407 5408 5409 5411 5412 5412 5412 5412 5411 5412 5412 5413 5413 5414 5414 5414 5414 5414 5415 5415 5415 5414 5414 5413 5414 5415 5415 5415 5418 5421 5423 5424 5423 5422 5422 5422 5422 5423 5423 5424 5424 5424 5424 5424 5424 5423 5423 5423 5421 5420 5419 5417 5415
5404 5404 5404 5404 5405 5406 5406 5407 5407 5406 5407 5407 5406 5405 5405 5406 5406 5406 5406 5407 5408 5408 5408 5408 5408 5407 5407 5408 5408 5411 5414 5415 5416 5417 5416 5415 5415 5415 5415 5416 5416 5417 5417 5417 5417 5416 5416 5416 5415 5414 5412 5410 5408 5406
5401 5400 5400 5399 5399 5399 5399 5398 5398 5398 5398 5398 5398 5397 5398 5398 5398 5398 5398 5399 5400 5401 5402 5402 5402 5402 5402 5401 5402 5403 5405 5407 5409 5410 5410 5409 5409 5409 5409 5409 5410 5410 5410 5410 5409 5409 5408 5407 5406 5405 5403 5400 5398 5396
5398 5397 5395 5394 5394 5393 5393 5392 5392 5391 5391 5391 5390 5390 5390 5391 5391 5391 5391 5392 5393 5394 5395 5395 5396 5396 5396 5396 5397 5397 5398 5400 5401 5401 5402 5402 5402 5403 5403 5403 5403 5403 5403 5402 5401 5400 5399 5398 5396 5394 5392 5389 5387 5385
5395 5392 5390 5388 5387 5386 5387 5384 5384 5384 5383 5383 5383 5382 5382 5383 5382 5382 5383 5383 5384 5385 5386 5387 5388 5389 5389 5390 5390 5390 5391 5392 5392 5393 5393 5393 5394 5395 5395 5395 5395 5394 5394 5393 5391 5390 5388 5386 5384 5382 5380 5378 5376 5373
5394 5391 5387 5384 5382 5380 5378 5377 5377 5376 5376 5375 5375 5375 5375 5375 5374 5374 5374 5374 5374 5374 5375 5376 5378 5379 5380 5380 5381 5381 5382 5383 5383 5384 5384 5384 5384 5385 5385 5384 5384 5383 5382 5380 5379 5377 5375 5374 5372 5371 5369 5367 5364 5362
5395 5391 5387 5383 5380 5377 5374 5372 5370 5369 5368 5367 5367 5366 5366 5366 5366 5366 5366 5365 5364 5364 5365 5365 5366 5366 5367 5368 5369 5370 5370 5371 5371 5372 5372 5372 5372 5372 5372 5372 5372 5371 5370 5369 5367 5366 5365 5363 5361 5360 5357 5355 5352 5349
5394 5390 5387 5383 5379 5375 5372 5369 5366 5364 5362 5360 5358 5357 5356 5355 5355 5355 5356 5355 5355 5354 5354 5354 5354 5355 5355 5355 5356 5357 5358 5358 5359 5359 5359 5359 5360 5360 5360 5360 5360 5359 5359 5358 5357 5355 5354 5352 5351 5348 5346 5342 5339 5335
5394 5390 5386 5382 5378 5375 5371 5368 5364 5361 5358 5355 5353 5350 5348 5346 5345 5344 5343 5343 5342 5342 5342 5342 5343 5343 5343 5344 5344 5345 5346 5347 5347 5347 5347 5347 5348 5349 5349 5349 5349 5349 5349 5348 5346 5345 5343 5341 5338 5335 5332 5328 5324 5321
5394 5389 5386 5382 5378 5374 5370 5366 5363 5359 5355 5352 5348 5345 5342 5339 5337 5334 5332 5330 5329 5328 5328 5328 5328 5328 5329 5330 5331 5332 5333 5334 5335 5336 5337 5337 5338 5339 5339 5339 5339 5338 5337 5336 5335 5333 5331 5328 5325 5322 5319 5315 5312 5308
5393 5389 5385 5381 5376 5372 5368 5364 5360 5356 5352 5348 5344 5340 5336 5331 5328 5324 5321 5318 5316 5315 5314 5313 5313 5313 5313 5315 5315 5316 5318 5320 5321 5322 5324 5325 5326 5327 5327 5328 5327 5327 5326 5325 5323 5321 5319 5316 5313 5310 5307 5303 5300 5296
5392 5388 5383 5378 5374 5370 5366 5361 5357 5352 5347 5343 5338 5333 5328 5323 5318 5313 5309 5305 5303 5301 5299 5298 5297 5297 5297 5298 5299 5301 5302 5304 5306 5308 5309 5311 5313 5314 5314 5315 5315 5315 5313 5312 5311 5309 5307 5305 5302 5299 5296 5292 5288 5284
5391 5386 5381 5377 5372 5368 5363 5358 5353 5348 5343 5337 5331 5325 5319 5313 5307 5301 5296 5292 5289 5286 5284 5282 5281 5281 5281 5282 5284 5285 5287 5289 5291 5293 5295 5297 5299 5300 5301 5302 5302 5302 5302 5301 5300 5298 5296 5294 5291 5287 5284 5280 5276 5271
5389 5385 5380 5375 5370 5365 5360 5355 5349 5344 5338 5332 5325 5319 5312 5305 5298 5292 5287 5282 5278 5274 5271 5269 5267 5266 5267 5268 5270 5272 5274 5276 5278 5280 5282 5284 5286 5288 5289 5290 5291 5291 5291 5290 5289 5287 5285 5283 5280 5277 5273 5268 5264 5259
5387 5382 5377 5373 5368 5363 5358 5353 5347 5341 5334 5328 5321 5313 5306 5298 5291 5284 5277 5271 5266 5261 5257 5254 5254 5254 5254 5256 5258 5260 5263 5265 5268 5270 5272 5274 5275 5277 5278 5279 5280 5280 5280 5279 5278 5277 5275 5273 5270 5266 5262 5258 5254 5249